네이버 하비 코리아

제목 작성자 내용

No 제목 작성자 등록일 조회
123 [공지] 2019년 결산 고객사은행사 당첨자 안내 !!! 네이버 2020-02-09 640
122 [행사] 2019년 결산 고객사은행사 안내 !!! 네이버 2019-12-08 4260
121 [행사] Studio 27Tabu Design 기간 한정 특별할인판매 안내 !!! 네이버 2019-07-31 3366
120 [공지] 2019년 상반기 결산 고객사은행사 당첨자 안내 !!! 네이버 2019-07-28 869
119 [행사] 2019년 상반기 결산 고객사은행사 안내 !!! 네이버 2019-06-23 3679
118 [행사] 창립 40주년 기념 고객사은행사 안내 !!! 네이버 2019-01-20 5213
117 [공지] 2018년 결산 고객사은행사 당첨자 안내 !!! 네이버 2019-01-20 846
116 [행사] 2018년 결산 고객사은행사 안내 !!! 네이버 2018-12-09 4981
115 [공지] 2018년 상반기 결산 고객사은행사 당첨자 안내 !!! 네이버 2018-08-12 1122
114 [행사] 2018년 상반기 결산 고객사은행사 안내 !!! 네이버 2018-07-01 4615
113 [공지] 2017년 결산 고객사은행사 당첨자 안내 !!! 네이버 2018-01-21 1576
112 [행사] 'Artwox 목갑판 고별 할인 판매' 네이버 2018-01-07 2517
111 [행사] 2017년 결산 고객사은행사 안내 !!! 네이버 2017-12-10 5850
110 [행사] Trumpeter 한정특가 행사 안내 !!! 네이버 2017-12-09 7321
109 [행사] Kinetic 제품 증정 행사 안내 !!! 네이버 2017-06-07 2931
108 [공지] 2016년 결산 고객사은행사 당첨자 안내 !!! 네이버 2017-01-30 1859
107 [행사] 2016년 결산 고객사은행사 안내 !!! 네이버 2016-12-04 6828
106 [특가행사 3탄] Bronco Models 한정특가 안내 !!! 네이버 2016-06-23 13272
105 [특가행사 2탄] MiniArt 한정특가 안내 !!! 네이버 2016-06-21 8874
104 [공지] 홍대역 매장 이전행사 당첨자 안내 네이버 2016-06-11 1542
103 [특가행사 1탄] AFV Club 한정특가 안내 !!! 네이버 2016-06-07 13907
102 [행사] 홍대역 매장 이전 기념 행사 안내 !! 네이버 2016-04-29 8211
101 [행사] Bandai 4월 특가 판매 안내 !!! 네이버 2016-04-02 6314
100 [행사] E.T.Model 할인 판매 안내 !!! 네이버 2016-03-17 1505
99 [공지] 2015년 결산 행사 당첨자 안내 !!! 네이버 2016-01-30 1230
98 [행사] 2015년 결산 고객사은행사 안내 !!! 네이버 2015-12-12 6912
97 [행사] 쿵스 스틱사포 세트 출시 행사 안내 !! 네이버 2015-10-24 1305
96 [행사] Gaianotes 사포 증정 행사 안내 !! 네이버 2015-08-24 1237
95 [공지] 상반기 결산 행사 당첨자 안내 !!! 네이버 2015-08-23 924
94 [행사] 2015년 상반기 결산 사은 행사 네이버 2015-06-28 12081
93 [공지] 설맞이 고객사은행사 당첨자 안내 !! 네이버 2015-03-29 542
92 [행사] 설맞이 고객사은행사 안내 !! 네이버 2015-02-08 11589
91 [공지] 2014년 결산 행사 당첨자 안내 네이버 2015-01-22 874
90 [행사] 2014년 결산 고객사은행사 안내 !!! 네이버 2014-12-07 10986
89 [행사] Trumpeter 한정특가 행사 안내 !!! 네이버 2014-11-12 3644
88 [공지] 상반기 결산 사은행사 당첨자 발표 !!! 네이버 2014-08-08 903
87 [행사] Lionroar 기간 한정 특별할인판매 안내 !!! 네이버 2014-07-03 2958
86 [행사] 2014년 상반기 결산 행사 !!! 네이버 2014-06-15 3878
85 [공지] 2013년 고객사은행사 당첨자 발표 !!! 네이버 2014-01-20 701
84 [행사] 2013년 결산 고객사은행사 !!! 네이버 2013-12-16 8871
83 [공지] 2013년 상반기 결산 행사 당첨자 안내 !!! 네이버 2013-07-29 574
82 [행사] 가정의 달 특집 한정특가 행사!!! 네이버 2013-05-16 5230
81 [공지] 창립 34주년 기념 행사 당첨자 안내 !!! 네이버 2013-02-17 927
80 [행사] 창립 34주년 기념 고객사은행사 안내 !!! 네이버 2013-01-20 8002
79 [공지] 2012년 결산 행사 당첨자 안내 네이버 2013-01-14 691
78 [행사] 2012년 결산 고객사은행사 안내 !!! 네이버 2012-12-09 8018
77 [행사] Style X 공구세트 발매기념 사포증정 이벤트 !!! 네이버 2012-11-29 888
76 [행사] Style X 사포 1+1 이벤트 네이버 2012-11-19 435
75 [행사] Master Box 한정특가 행사 안내 !!! 네이버 2012-11-03 1954
74 [행사] Italeri/Zvezda 한정특가 행사 안내 !!! 네이버 2012-10-12 3478

이전 [ 1 ][ 2 ][ 3 ] 다음

회사소개 및 약도 | 이용안내 | 사이트맵 | 개인정보처리방침 | 이용약관 | 신용카드 내역조회 | 인재 채용

네이버 하비 코리아 | 사업자등록번호 105-08-22004 [사업자등록정보확인] | 통신판매업신고번호 서울마포-제2002-00695호
대표 이수영 | 서울특별시 마포구 연희로 11 한국특허정보원빌딩 1층 [홍대입구역 3번 출구] | Hosting by Smileserv
Tel 02)3141-9845 | Fax 02)3141-9846 | E-mail admin@modelsale.com

네이버 하비 코리아는 공정거래위원회 심의 표준약관을 사용합니다. 이미지와 컨텐츠의 저작권은 네이버 하비 코리아에 있으며, 무단복제나 도용은 저작권법에 의거하여 처벌받을 수 있습니다.
Copyright ⓒ2001~2020. Neighbor Hobby Korea All rights reserved.